TimeCST,TemperatureF,Dew PointF,Humidity,Sea Level PressureIn,VisibilityMPH,Wind Direction,Wind SpeedMPH,Gust SpeedMPH,PrecipitationIn,Events,Conditions,WindDirDegrees,DateUTC
12:14 AM,19.4,15.8,86,29.86,10.0,WNW,3.5,-,N/A,,Overcast,300,2013-12-21 06:14:00
12:34 AM,19.4,15.8,86,29.86,10.0,WNW,4.6,-,N/A,,Overcast,300,2013-12-21 06:34:00
12:55 AM,19.4,15.8,86,29.86,10.0,West,4.6,-,N/A,,Overcast,260,2013-12-21 06:55:00
1:14 AM,19.4,15.8,86,29.85,10.0,West,5.8,-,N/A,,Overcast,280,2013-12-21 07:14:00
1:34 AM,19.4,15.8,86,29.86,10.0,West,5.8,-,N/A,,Overcast,260,2013-12-21 07:34:00
1:55 AM,19.4,15.8,86,29.87,10.0,WSW,5.8,-,N/A,,Overcast,250,2013-12-21 07:55:00
2:15 AM,19.4,15.8,86,29.89,10.0,West,8.1,-,N/A,,Overcast,260,2013-12-21 08:15:00
2:34 AM,17.6,14.0,86,29.88,10.0,West,5.8,-,N/A,,Overcast,280,2013-12-21 08:34:00
2:54 AM,17.6,14.0,86,29.88,7.0,West,5.8,-,N/A,,Overcast,270,2013-12-21 08:54:00
3:14 AM,17.6,14.0,86,29.88,5.0,West,3.5,-,N/A,,Overcast,270,2013-12-21 09:14:00
3:34 AM,17.6,14.0,86,29.88,3.0,West,5.8,-,N/A,,Overcast,270,2013-12-21 09:34:00
3:54 AM,17.6,14.0,86,29.87,3.0,West,3.5,-,N/A,,Overcast,280,2013-12-21 09:54:00
4:15 AM,17.6,14.0,86,29.86,2.5,WNW,3.5,-,N/A,,Overcast,300,2013-12-21 10:15:00
4:34 AM,17.6,14.0,86,29.85,2.5,NNW,5.8,-,N/A,,Overcast,340,2013-12-21 10:34:00
4:54 AM,17.6,14.0,86,29.85,3.0,NNW,5.8,-,N/A,,Overcast,330,2013-12-21 10:54:00
5:15 AM,17.6,14.0,86,29.85,4.0,NNW,4.6,-,N/A,,Overcast,330,2013-12-21 11:15:00
5:34 AM,17.6,14.0,86,29.85,5.0,NNW,4.6,-,N/A,,Overcast,340,2013-12-21 11:34:00
5:54 AM,17.6,14.0,86,29.85,7.0,North,3.5,-,N/A,,Overcast,350,2013-12-21 11:54:00
6:15 AM,17.6,14.0,86,29.86,7.0,Calm,Calm,-,N/A,,Overcast,0,2013-12-21 12:15:00
6:34 AM,17.6,14.0,86,29.89,7.0,NNW,3.5,-,N/A,,Overcast,330,2013-12-21 12:34:00
6:55 AM,17.6,14.0,86,29.88,7.0,Calm,Calm,-,N/A,,Overcast,0,2013-12-21 12:55:00
7:14 AM,17.6,14.0,86,29.87,7.0,NNE,3.5,-,N/A,,Overcast,20,2013-12-21 13:14:00
7:35 AM,17.6,14.0,86,29.87,7.0,North,4.6,-,N/A,,Overcast,10,2013-12-21 13:35:00
7:54 AM,17.6,14.0,86,29.88,5.0,North,4.6,-,N/A,,Overcast,10,2013-12-21 13:54:00
8:15 AM,17.6,15.8,93,29.90,7.0,North,4.6,-,N/A,,Overcast,360,2013-12-21 14:15:00
8:34 AM,19.4,17.6,93,29.91,7.0,Calm,Calm,-,N/A,,Overcast,0,2013-12-21 14:34:00
8:55 AM,19.4,17.6,93,29.93,7.0,North,3.5,-,N/A,,Overcast,350,2013-12-21 14:55:00
9:15 AM,19.4,17.6,93,29.92,10.0,NNE,3.5,-,N/A,,Overcast,30,2013-12-21 15:15:00
9:34 AM,19.4,17.6,93,29.91,10.0,NNE,4.6,-,N/A,,Overcast,20,2013-12-21 15:34:00
9:54 AM,19.4,17.6,93,29.90,10.0,North,6.9,-,N/A,,Overcast,10,2013-12-21 15:54:00
10:15 AM,19.4,17.6,93,29.93,10.0,NNE,5.8,-,N/A,,Overcast,30,2013-12-21 16:15:00
10:35 AM,19.4,17.6,93,29.92,10.0,North,5.8,-,N/A,,Overcast,360,2013-12-21 16:35:00
10:54 AM,21.2,19.4,93,29.92,10.0,North,8.1,-,N/A,,Overcast,10,2013-12-21 16:54:00
11:15 AM,21.2,17.6,86,29.88,10.0,North,8.1,-,N/A,,Overcast,10,2013-12-21 17:15:00
11:35 AM,21.2,17.6,86,29.90,10.0,NNE,5.8,-,N/A,,Overcast,30,2013-12-21 17:35:00
11:54 AM,21.2,17.6,86,29.91,10.0,NE,6.9,-,N/A,,Overcast,40,2013-12-21 17:54:00
12:15 PM,23.0,17.6,80,29.92,10.0,NE,5.8,-,N/A,,Overcast,50,2013-12-21 18:15:00
12:34 PM,23.0,19.4,86,29.92,10.0,NE,4.6,-,N/A,,Overcast,50,2013-12-21 18:34:00
12:55 PM,23.0,19.4,86,29.91,7.0,NE,4.6,-,N/A,,Overcast,50,2013-12-21 18:55:00
1:14 PM,23.0,19.4,86,29.90,7.0,North,9.2,-,N/A,,Overcast,10,2013-12-21 19:14:00
1:35 PM,23.0,19.4,86,29.90,7.0,North,9.2,-,N/A,,Overcast,10,2013-12-21 19:35:00
1:54 PM,23.0,19.4,86,29.91,7.0,North,8.1,-,N/A,,Overcast,10,2013-12-21 19:54:00
2:14 PM,23.0,19.4,86,29.90,7.0,North,8.1,-,N/A,,Overcast,10,2013-12-21 20:14:00
2:35 PM,23.0,19.4,86,29.89,10.0,North,10.4,-,N/A,,Overcast,10,2013-12-21 20:35:00
2:55 PM,23.0,19.4,86,29.88,10.0,NNE,11.5,-,N/A,,Overcast,30,2013-12-21 20:55:00
3:15 PM,23.0,19.4,86,29.91,10.0,NNE,10.4,-,N/A,,Overcast,20,2013-12-21 21:15:00
3:35 PM,23.0,19.4,86,29.91,10.0,North,11.5,-,N/A,,Overcast,10,2013-12-21 21:35:00
3:54 PM,23.0,19.4,86,29.92,10.0,North,10.4,-,N/A,,Overcast,10,2013-12-21 21:54:00
4:15 PM,23.0,19.4,86,29.93,10.0,North,9.2,-,N/A,,Overcast,360,2013-12-21 22:15:00
4:35 PM,23.0,19.4,86,29.92,10.0,North,10.4,-,N/A,,Overcast,10,2013-12-21 22:35:00
4:54 PM,23.0,19.4,86,29.92,10.0,North,9.2,-,N/A,,Overcast,10,2013-12-21 22:54:00
5:15 PM,23.0,19.4,86,29.91,10.0,NNE,10.4,-,N/A,,Overcast,20,2013-12-21 23:15:00
5:34 PM,23.0,19.4,86,29.91,10.0,NNE,11.5,-,N/A,,Overcast,20,2013-12-21 23:34:00
5:55 PM,23.0,19.4,86,29.91,10.0,North,11.5,-,N/A,,Overcast,10,2013-12-21 23:55:00
6:15 PM,23.0,19.4,86,29.92,10.0,North,10.4,-,N/A,,Overcast,10,2013-12-22 00:15:00
6:35 PM,23.0,19.4,86,29.93,10.0,North,11.5,-,N/A,,Overcast,10,2013-12-22 00:35:00
6:55 PM,23.0,19.4,86,29.93,10.0,NNE,11.5,-,N/A,,Overcast,20,2013-12-22 00:55:00
7:14 PM,23.0,19.4,86,29.94,10.0,North,12.7,-,N/A,,Overcast,10,2013-12-22 01:14:00
7:35 PM,23.0,19.4,86,29.94,10.0,North,15.0,-,N/A,,Overcast,10,2013-12-22 01:35:00
7:55 PM,23.0,19.4,86,29.92,10.0,NNE,12.7,-,N/A,,Overcast,20,2013-12-22 01:55:00
8:15 PM,23.0,19.4,86,29.91,10.0,North,12.7,-,N/A,,Overcast,10,2013-12-22 02:15:00
8:35 PM,23.0,19.4,86,29.90,10.0,North,13.8,-,N/A,,Overcast,10,2013-12-22 02:35:00
8:55 PM,23.0,19.4,86,29.89,10.0,North,11.5,-,N/A,,Overcast,10,2013-12-22 02:55:00
9:14 PM,23.0,19.4,86,29.89,10.0,North,11.5,-,N/A,,Overcast,10,2013-12-22 03:14:00
9:35 PM,23.0,19.4,86,29.89,10.0,North,11.5,-,N/A,,Overcast,360,2013-12-22 03:35:00
9:54 PM,23.0,19.4,86,29.91,10.0,North,13.8,18.4,N/A,,Overcast,10,2013-12-22 03:54:00
10:14 PM,23.0,19.4,86,29.91,10.0,NNE,11.5,-,N/A,,Overcast,20,2013-12-22 04:14:00
10:34 PM,23.0,19.4,86,29.91,10.0,North,12.7,-,N/A,,Overcast,10,2013-12-22 04:34:00
10:54 PM,23.0,19.4,86,29.91,10.0,North,11.5,-,N/A,,Overcast,10,2013-12-22 04:54:00
11:14 PM,23.0,19.4,86,29.90,10.0,North,15.0,-,N/A,,Overcast,10,2013-12-22 05:14:00
11:34 PM,23.0,19.4,86,29.91,10.0,North,12.7,-,N/A,,Overcast,10,2013-12-22 05:34:00
11:54 PM,21.2,17.6,86,29.91,10.0,NNE,11.5,-,N/A,,Overcast,20,2013-12-22 05:54:00